Location: Black Swamp Observatory
(41.3920°N, 84.1250°W)
Time: 04:21:28
(UTC-04:00)

Courier 1B Rocket - Pass Details

Date: 21 January 2022
Orbit: 920 x 1202 km, 28.2° (Epoch: 28 May)

Event Time Altitude Azimuth Distance (km) Brightness Sun altitude
Exits shadow 05:50:37 20° 214° (SW) 2,056 6.4 -23.5°
Maximum altitude 05:52:54 25° 185° (S) 1,834 6.4 -23.1°
Drops below altitude 10° 05:57:54 10° 132° (SE) 2,630 8.0 -22.1°
Sets 06:00:55 0° 119° (ESE) 3,555 9.2 -21.6°
